Regional Weather Roundup
Issued by NWS

Home | Current Version | Previous Version | Graphics & Text | Print | Product List | Glossary On
Versions: 1 2 3 4 5 6 7 8 9 10 11 12 13 14 15 16 17 18 19 20 21 22 23 24 25 26 27 28 29 30 31 32 33 34 35 36 37 38 39 40 41 42 43 44 45 46 47 48 49 50
000
ASUS43 KLMK 190602
RWRKY
KENTUCKY REGIONAL WEATHER ROUNDUP
NATIONAL WEATHER SERVICE LOUISVILLE KY
200 AM EDT THU APR 19 2018

NOTE "FAIR" INDICATES FEW OR NO CLOUDS BELOW 12,000 FEET
WITH NO SIGNIFICANT WEATHER AND/OR OBSTRUCTIONS TO VISIBILITY.

KYZ001>023-026-027-061>063-070>075-190700-
WESTERN AND SOUTH CENTRAL KENTUCKY

CITY           SKY/WX    TMP DP  RH WIND       PRES   REMARKS
PADUCAH        FAIR      47  31  53 NW17G28   30.06R
HENDERSON      CLOUDY    43  30  60 NW25G32   30.05R
OWENSBORO      CLOUDY    44  33  65 NW17G28   30.04R
HOPKINSVILLE   FAIR      48  35  60 NW10      30.02R
BOWLING GREEN  FAIR      50  35  56 NW14G24   30.00R
GLASGOW        NOT AVBL
$$

KYZ024-025-028>034-038-045-046-053-190700-
NORTH CENTRAL KENTUCKY

CITY           SKY/WX    TMP DP  RH WIND       PRES   REMARKS
LOUISVILLE/SDF CLOUDY    45  30  55 NW20G35   29.97R
LOUISVILLE/LOU CLOUDY    44  31  60 NW17G28   29.97R
FORT KNOX      CLOUDY    44  32  62 NW17G23   29.98R
$$

KYZ035>037-039>044-047>052-055>060-089>105-190700-
NORTHEAST KENTUCKY

CITY           SKY/WX    TMP DP  RH WIND       PRES   REMARKS
LEXINGTON      CLOUDY    47  36  65 W14G24    29.90R
COVINGTON      CLOUDY    44  32  62 W21G31    29.89R
FRANKFORT      CLOUDY    47  31  53 NW12G29   29.91R
$$

KYZ054-064>069-076>088-106>120-190700-
SOUTHEAST KENTUCKY

CITY           SKY/WX    TMP DP  RH WIND       PRES   REMARKS
JACKSON        LGT RAIN  54  50  86 NW12G25   29.82R
LONDON         LGT RAIN  50  45  83 NW10G30   29.88R
SOMERSET       NOT AVBL
MIDDLESBORO    DRIZZLE   58  51  78 W13G20    29.84S
MONTICELLO     CLOUDY    51  40  65 NW14G25   29.95R
$$





USA.gov is the U.S. government's official web portal to all federal, state and local government web resources and services.